Regional Weather Roundup
Issued by NWS

Home | Current Version | Previous Version | Graphics & Text | Print | Product List | Glossary On
Versions: 1 2 3 4 5 6 7 8 9 10 11 12 13 14 15 16 17 18 19 20 21 22 23 24 25 26 27 28 29 30 31 32 33 34 35 36 37 38 39 40 41 42 43 44 45 46 47 48 49 50
000
ASUS43 KOAX 280802
RWRNE

WEATHER ROUNDUP FOR NEBRASKA
NATIONAL WEATHER SERVICE OMAHA NE
300 AM CDT FRI AUG 28 2015

NOTES: SATELLITE DATA IS BEING USED TO AUGMENT CLOUD COVER ABOVE
       12000 FEET.
       "FAIR" INDICATES FEW OR NO CLOUDS BELOW 12,000 FEET WITH NO
       SIGNIFICANT WEATHER AND/OR OBSTRUCTIONS TO VISIBILITY.

  * THESE STATIONS DO NOT REPORT WEATHER SUCH AS RAIN...SNOW OR FOG.

NEZ001>004-019>022-054>056-280900-
NEBRASKA PANHANDLE

CITY           SKY/WX    TMP DP  RH WIND       PRES   REMARKS
SCOTTSBLUFF    PTCLDY    57  54  89 W7        30.07R
ALLIANCE       PTCLDY    51  49  92 W7        30.04S
CHADRON        CLEAR     52  50  93 SW5       30.01F
KIMBALL        MOCLDY    60  53  78 W9        30.12R
SIDNEY         PTCLDY    59  54  83 NW10      30.08F
$$

NEZ057>060-069>072-079>082-280900-
SOUTHWEST NEBRASKA

CITY           SKY/WX    TMP DP  RH WIND       PRES   REMARKS
NORTH PLATTE   CLEAR     65  63  93 W8        29.93S
IMPERIAL       CLEAR     64  58  80 NW9       29.99F
LEXINGTON      MOCLDY    71  69  94 W7        29.89F
MC COOK        CLEAR     68  63  84 W10       29.93S
OGALLALA       CLEAR     64  60  88 NW10      29.99F
$$

NEZ005>010-023>029-035>040-094-280900-
NORTH CENTRAL NEBRASKA

CITY           SKY/WX    TMP DP  RH WIND       PRES   REMARKS
AINSWORTH      CLOUDY    69  68  97 CALM      29.91S
BROKEN BOW     CLOUDY    69  67  93 N3        29.87F
O`NEILL        CLOUDY    67  66  95 E8        29.87F
ORD            CLOUDY    65  64  97 NW8       29.83F FOG
THEDFORD       CLOUDY    68  66  93 NW9       29.95S
$$

NEZ041-046>049-061>064-073>077-083>087-280900-
SOUTH CENTRAL NEBRASKA

CITY           SKY/WX    TMP DP  RH WIND       PRES   REMARKS
GRAND ISLAND   PTCLDY    71  66  84 SW8       29.83F
AURORA         MOCLDY    71  68  91 CALM      29.83F
HASTINGS       PTCLDY    71  67  87 SW9       29.84R
HEBRON         MOCLDY    74  63  69 S20G30    29.84S
HOLDREGE       PTCLDY    68  65  89 W3        29.86F
KEARNEY *      PTCLDY    70  64  83 W7        29.84S
YORK           CLOUDY    68  66  94 CALM      29.84S
$$

NEZ011>018-030>034-042>045-280900-
NORTHEAST NEBRASKA

CITY           SKY/WX    TMP DP  RH WIND       PRES   REMARKS
NORFOLK        CLOUDY    68  65  90 S8        29.83S
ALBION         CLOUDY    67  64  91 SE6       29.83S
BLAIR          RAIN      67  65  93 E15       29.88F
COLUMBUS *     CLOUDY   N/A N/A N/A SE6       29.84F
FREMONT        RAIN      69  66  92 SE14      29.85F
TEKAMAH        LGT RAIN  67  66  97 SE20G31   29.86F
$$

NEZ050>053-065>068-078-088>093-280900-
SOUTHEAST NEBRASKA

CITY           SKY/WX    TMP DP  RH WIND       PRES   REMARKS
LINCOLN        CLOUDY    70  68  93 SE15      29.85F
OMAHA EPPLEY   TSTM      68  67  96 SE10      29.93R FOG
BEATRICE       CLOUDY    72  66  83 S14G21    29.84S
FALLS CITY     CLOUDY    70  66  87 S10       29.91S
NEBRASKA CITY  RAIN      68  68  98 SE5       29.94R
PLATTSMOUTH    TSTM      67  65  94 E12       29.91F
$$

NEZ044-045-051>053-067-280900-
OMAHA AREA

CITY           SKY/WX    TMP DP  RH WIND       PRES   REMARKS
EPPLEY FIELD   TSTM      68  67  96 SE10      29.93R FOG
BLAIR          RAIN      67  65  93 E15       29.88F
FREMONT        RAIN      69  66  92 SE14      29.85F
MILLARD        HVY RAIN  69  66  93 SE8       29.91F
OFFUTT AFB     TSTM      68  66  94 E8        29.92R FOG
PLATTSMOUTH    TSTM      67  65  94 E12       29.91F
WAHOO          LGT RAIN  68  66  94 SE20G28   29.84F
$$


USA.gov is the U.S. government's official web portal to all federal, state and local government web resources and services.